FW7691 Weather Reports


Display with metric or nautical units.
time (UTC)temp
F
wind
direction
speed
MPH
gust
MPH
rain 1hr
in
rain 24hr
in
rain mn
in
humidity
%
barometer
mb
20260507040443 44 282 0.0 0.0 0.00 0.00 0.00 72 1013.5
20260507035939 44 282 0.0 0.0 0.00 0.00 0.00 72 1013.5
20260507035436 44 282 0.0 0.0 0.00 0.00 0.00 72 1013.6
20260507034933 44 282 0.0 0.0 0.00 0.00 0.00 73 1013.6
20260507034430 45 282 0.0 0.0 0.00 0.00 0.00 74 1013.5
20260507033928 45 282 0.0 0.0 0.00 0.00 0.00 73 1013.8
20260507033425 45 282 0.0 0.0 0.00 0.00 0.00 73 1013.5
20260507032922 45 282 0.0 0.0 0.00 0.00 0.00 74 1013.5
20260507032419 45 282 0.0 0.0 0.00 0.00 0.00 73 1013.7
20260507031915 45 282 0.0 0.0 0.00 0.00 0.00 71 1013.7
20260507031412 45 282 0.0 0.0 0.00 0.00 0.00 69 1013.7
20260507030909 45 282 0.0 0.0 0.00 0.00 0.00 69 1013.7
20260507030406 45 282 0.0 0.0 0.00 0.00 0.00 72 1013.6
20260507025903 45 282 0.0 0.0 0.00 0.00 0.00 69 1013.7
20260507025401 45 282 0.0 0.0 0.00 0.00 0.00 69 1013.7
20260507024858 45 282 0.0 0.0 0.00 0.00 0.00 65 1013.8
20260507024355 45 282 0.0 0.0 0.00 0.00 0.00 66 1013.8
20260507023851 46 282 0.0 0.0 0.00 0.00 0.00 66 1013.8
20260507023348 46 282 0.0 0.0 0.00 0.00 0.00 67 1013.7
20260507022845 46 282 0.0 0.0 0.00 0.00 0.00 67 1013.7
20260507022342 46 282 0.0 0.0 0.00 0.00 0.00 65 1013.8
20260507021837 46 282 0.0 0.0 0.00 0.00 0.00 66 1013.7
20260507021333 46 282 0.0 0.0 0.00 0.00 0.00 64 1013.8
20260507020831 46 282 0.0 0.0 0.00 0.00 0.00 67 1013.7
20260507020328 46 282 0.0 0.0 0.00 0.00 0.00 64 1013.7
20260507015825 47 282 0.0 0.0 0.00 0.00 0.00 60 1013.4
20260507015322 47 282 0.0 0.0 0.00 0.00 0.00 61 1013.5
20260507014814 47 282 0.0 0.0 0.00 0.00 0.00 62 1013.4
20260507014310 47 282 0.0 0.0 0.00 0.00 0.00 61 1013.4
20260507013806 47 282 0.0 0.0 0.00 0.00 0.00 59 1013.5
20260507013304 47 282 0.0 0.0 0.00 0.00 0.00 58 1013.4
20260507012801 48 282 0.0 0.0 0.00 0.00 0.00 63 1013.3
20260507012256 48 282 0.0 0.0 0.00 0.00 0.00 62 1013.4
20260507011754 48 282 0.0 0.0 0.00 0.00 0.00 61 1013.3
20260507011251 48 282 0.0 0.0 0.00 0.00 0.00 59 1013.4
20260507010750 48 282 0.0 0.0 0.00 0.00 0.00 57 1013.3
20260507010246 48 282 0.0 0.0 0.00 0.00 0.00 58 1013.3
20260507005744 49 282 0.0 0.0 0.00 0.00 0.00 58 1013.2
20260507005240 49 282 0.0 0.0 0.00 0.00 0.00 54 1013.1
20260507004737 49 282 0.0 0.0 0.00 0.00 0.00 54 1013.2
20260507004235 49 282 0.0 0.0 0.00 0.00 0.00 54 1013.2
20260507003730 49 282 0.0 0.0 0.00 0.00 0.00 52 1013.1
20260507003226 50 282 0.0 0.0 0.00 0.00 0.00 54 1013.4
20260507002722 50 282 0.0 0.0 0.00 0.00 0.00 51 1013.3
20260507002218 50 282 0.0 0.0 0.00 0.00 0.00 49 1013.2
20260507001715 51 282 0.0 1.0 0.00 0.00 0.00 47 1013.3
20260507001213 51 306 1.0 1.0 0.00 0.00 0.00 46 1013.1
20260507000709 51 295 1.0 1.0 0.00 0.00 0.00 46 1013.0
20260507000205 51 288 0.0 1.0 0.00 0.00 0.00 47 1013.0
20260506235702 51 281 0.0 0.0 0.00 0.00 0.00 48 1013.2
20260506235157 51 302 0.0 1.0 0.00 0.00 0.00 48 1013.0
20260506234654 51 277 1.0 2.0 0.00 0.00 0.00 46 1013.1
20260506234151 51 300 2.0 3.0 0.00 0.00 0.00 45 1013.0
20260506233649 51 276 3.0 5.0 0.00 0.00 0.00 44 1013.1
20260506233145 51 290 3.0 5.0 0.00 0.00 0.00 46 1012.9
20260506232641 52 351 6.0 8.0 0.00 0.00 0.00 43 1013.1
20260506232137 52 284 2.0 2.0 0.00 0.00 0.00 43 1013.0
20260506231634 52 332 3.0 3.0 0.00 0.00 0.00 42 1012.9
20260506231133 53 343 3.0 3.0 0.00 0.00 0.00 42 1013.2
20260506230629 52 305 3.0 3.0 0.00 0.00 0.00 43 1012.9
20260506230126 52 337 3.0 5.0 0.00 0.00 0.00 42 1013.0
20260506225623 52 294 2.0 2.0 0.00 0.00 0.00 42 1012.9
20260506225119 53 285 4.0 7.0 0.00 0.00 0.00 41 1013.0
20260506224616 53 268 3.0 3.0 0.00 0.00 0.00 43 1013.1
20260506224112 53 275 1.0 1.0 0.00 0.00 0.00 45 1012.8
20260506223609 53 299 4.0 5.0 0.00 0.00 0.00 42 1012.8
20260506223105 53 305 2.0 5.0 0.00 0.00 0.00 42 1012.6
20260506222602 53 322 2.0 2.0 0.00 0.00 0.00 43 1012.9
20260506222058 53 337 3.0 3.0 0.00 0.00 0.00 44 1012.7
20260506221556 53 308 4.0 5.0 0.00 0.00 0.00 42 1012.6
20260506221054 53 289 3.0 5.0 0.00 0.00 0.00 44 1012.6
20260506220550 53 285 2.0 2.0 0.00 0.00 0.00 44 1012.8
20260506220045 53 288 1.0 1.0 0.00 0.00 0.00 45 1012.8
20260506215542 53 274 2.0 3.0 0.00 0.00 0.00 45 1012.8
20260506215038 53 349 3.0 5.0 0.00 0.00 0.00 42 1012.7
20260506214535 53 282 3.0 6.0 0.00 0.00 0.00 42 1012.5
20260506214033 53 269 3.0 3.0 0.00 0.00 0.00 43 1012.8
20260506213530 53 305 1.0 2.0 0.00 0.00 0.00 42 1012.6
20260506213027 53 295 3.0 5.0 0.00 0.00 0.00 44 1012.5
20260506212523 53 252 1.0 1.0 0.00 0.00 0.00 43 1012.6
20260506212019 53 0 3.0 5.0 0.00 0.00 0.00 42 1012.5
20260506211514 54 246 1.0 1.0 0.00 0.00 0.00 44 1012.5
20260506211012 54 289 1.0 1.0 0.00 0.00 0.00 45 1012.5
20260506210509 54 288 1.0 2.0 0.00 0.00 0.00 44 1012.5
20260506210006 54 270 2.0 3.0 0.00 0.00 0.00 42 1012.5
20260506205502 54 50 0.0 1.0 0.00 0.00 0.00 42 1012.4
20260506204957 55 344 1.0 1.0 0.00 0.00 0.00 40 1012.4
20260506204456 55 70 2.0 5.0 0.00 0.00 0.00 40 1012.4
20260506203953 55 327 2.0 2.0 0.00 0.00 0.00 41 1012.5
20260506203450 55 10 2.0 3.0 0.00 0.00 0.00 43 1012.4
20260506202947 54 334 5.0 6.0 0.00 0.00 0.00 42 1012.5
20260506202444 55 268 2.0 3.0 0.00 0.00 0.00 43 1012.7
20260506201940 54 294 2.0 2.0 0.00 0.00 0.00 44 1012.7
20260506201438 54 277 1.0 2.0 0.00 0.00 0.00 43 1012.6
20260506200934 54 326 3.0 5.0 0.00 0.00 0.00 43 1012.7
20260506200431 55 43 2.0 3.0 0.00 0.00 0.00 41 1012.7
20260506195927 55 68 2.0 2.0 0.00 0.00 0.00 41 1012.7
20260506195424 54 312 2.0 2.0 0.00 0.00 0.00 40 1012.7
20260506194921 54 244 1.0 2.0 0.00 0.00 0.00 43 1012.8
20260506194418 54 87 3.0 3.0 0.00 0.00 0.00 42 1012.7
20260506193915 54 320 0.0 0.0 0.00 0.00 0.00 42 1012.7
20260506193412 55 338 3.0 3.0 0.00 0.00 0.00 42 1013.0
20260506192908 55 336 2.0 2.0 0.00 0.00 0.00 42 1012.9
20260506192405 54 275 1.0 1.0 0.00 0.00 0.00 43 1012.8
20260506191902 54 284 3.0 3.0 0.00 0.00 0.00 41 1012.9
20260506191358 55 110 3.0 5.0 0.00 0.00 0.00 41 1013.0
20260506190856 53 299 1.0 2.0 0.00 0.00 0.00 44 1012.9
20260506190352 53 274 1.0 1.0 0.00 0.00 0.00 44 1012.9
20260506185849 53 36 0.0 0.0 0.00 0.00 0.00 43 1013.1
20260506185346 53 183 1.0 1.0 0.00 0.00 0.00 43 1013.1
20260506184843 54 321 2.0 2.0 0.00 0.00 0.00 43 1013.3
20260506184340 54 74 1.0 2.0 0.00 0.00 0.00 43 1013.1
20260506183837 54 225 1.0 2.0 0.00 0.00 0.00 45 1013.4
20260506183333 53 349 4.0 5.0 0.00 0.00 0.00 46 1013.3
20260506182830 51 282 3.0 3.0 0.00 0.00 0.00 45 1013.0
20260506182327 53 333 7.0 10.0 0.00 0.00 0.00 42 1013.0
20260506181825 53 130 1.0 2.0 0.00 0.00 0.00 43 1012.9
20260506181322 53 3 7.0 9.0 0.00 0.00 0.00 43 1012.9
20260506180819 52 12 5.0 8.0 0.00 0.00 0.00 44 1012.9
20260506180315 52 298 3.0 3.0 0.00 0.00 0.00 44 1013.1
20260506175812 53 305 3.0 5.0 0.00 0.00 0.00 42 1012.7
20260506175309 52 337 2.0 2.0 0.00 0.00 0.00 44 1012.9
20260506174806 53 341 4.0 5.0 0.00 0.00 0.00 44 1013.0
20260506174303 54 193 0.0 0.0 0.00 0.00 0.00 42 1013.0
20260506173801 53 20 2.0 3.0 0.00 0.00 0.00 43 1013.0
20260506173257 53 86 2.0 3.0 0.00 0.00 0.00 44 1013.1
20260506172754 53 263 4.0 5.0 0.00 0.00 0.00 42 1013.1
20260506172251 53 334 3.0 3.0 0.00 0.00 0.00 42 1013.1
20260506171749 54 293 6.0 9.0 0.00 0.00 0.00 41 1013.1
20260506171245 53 10 4.0 6.0 0.00 0.00 0.00 42 1013.3
20260506170743 53 218 2.0 2.0 0.00 0.00 0.00 41 1013.4
20260506170239 52 327 3.0 3.0 0.00 0.00 0.00 45 1013.7
20260506165738 53 332 3.0 3.0 0.00 0.00 0.00 46 1013.6
20260506165235 53 47 4.0 6.0 0.00 0.00 0.00 43 1013.6
20260506164732 53 144 2.0 2.0 0.00 0.00 0.00 43 1013.7
20260506164229 51 285 1.0 1.0 0.00 0.00 0.00 42 1013.4
20260506163725 51 10 3.0 3.0 0.00 0.00 0.00 43 1013.5
20260506163220 51 300 4.0 5.0 0.00 0.00 0.00 45 1013.7
20260506162717 52 281 2.0 2.0 0.00 0.00 0.00 43 1013.7
20260506162214 52 333 5.0 6.0 0.00 0.00 0.00 43 1013.7
20260506161711 51 239 4.0 8.0 0.00 0.00 0.00 42 1013.7
20260506161209 50 280 4.0 6.0 0.00 0.00 0.00 43 1013.5
20260506160706 51 257 1.0 2.0 0.00 0.00 0.00 45 1013.5
20260506160202 51 307 3.0 5.0 0.00 0.00 0.00 44 1013.4
20260506155701 50 202 0.0 1.0 0.00 0.00 0.00 45 1013.4
20260506155158 50 320 2.0 2.0 0.00 0.00 0.00 46 1013.6
20260506153300 51 310 6.0 8.0 0.00 0.00 0.00 44 1013.5
20260506152756 50 46 1.0 1.0 0.00 0.00 0.00 46 1013.5
20260506152254 50 359 1.0 2.0 0.00 0.00 0.00 45 1013.3
20260506151753 50 308 3.0 3.0 0.00 0.00 0.00 43 1013.4
20260506151249 50 280 1.0 2.0 0.00 0.00 0.00 45 1013.2
20260506150746 51 277 4.0 5.0 0.00 0.00 0.00 43 1013.1
20260506150243 52 329 4.0 6.0 0.00 0.00 0.00 44 1013.1
20260506145739 51 242 2.0 2.0 0.00 0.00 0.00 44 1013.3
20260506145236 51 293 3.0 5.0 0.00 0.00 0.00 44 1013.2
20260506144734 50 338 6.0 7.0 0.00 0.00 0.00 45 1013.3
20260506144231 50 2 6.0 8.0 0.00 0.00 0.00 44 1013.2
20260506143728 50 167 0.0 1.0 0.00 0.00 0.00 45 1013.1
20260506143225 49 336 3.0 5.0 0.00 0.00 0.00 48 1013.0
20260506142724 49 311 4.0 6.0 0.00 0.00 0.00 48 1013.2
20260506142222 50 53 2.0 3.0 0.00 0.00 0.00 48 1013.0
20260506141719 49 305 1.0 2.0 0.00 0.00 0.00 50 1012.9
20260506141217 49 343 4.0 6.0 0.00 0.00 0.00 50 1012.9
20260506140715 48 331 4.0 5.0 0.00 0.00 0.00 50 1012.7
20260506140212 49 328 6.0 9.0 0.00 0.00 0.00 50 1012.7
20260506135708 50 160 2.0 2.0 0.00 0.00 0.00 51 1012.2
20260506135205 49 218 2.0 2.0 0.00 0.00 0.00 52 1012.5
20260506134701 48 255 3.0 5.0 0.00 0.00 0.00 51 1012.4
20260506134158 48 275 2.0 2.0 0.00 0.00 0.00 52 1012.4
20260506133655 48 260 3.0 3.0 0.00 0.00 0.00 53 1012.5
20260506133151 48 309 5.0 6.0 0.00 0.00 0.00 51 1012.4
20260506132649 47 51 1.0 1.0 0.00 0.00 0.00 55 1012.3
20260506132146 47 267 4.0 8.0 0.00 0.00 0.00 54 1012.5
20260506131643 48 354 3.0 5.0 0.00 0.00 0.00 55 1012.5
20260506131139 48 330 3.0 5.0 0.00 0.00 0.00 55 1012.5
20260506130636 48 35 4.0 5.0 0.00 0.00 0.00 54 1012.5
20260506130134 48 177 3.0 3.0 0.00 0.00 0.00 54 1012.3
20260506125632 47 118 5.0 8.0 0.00 0.00 0.00 55 1012.4
20260506125129 47 15 3.0 3.0 0.00 0.00 0.00 54 1012.1
20260506124627 47 320 2.0 3.0 0.00 0.00 0.00 55 1012.3
20260506124124 46 103 2.0 2.0 0.00 0.00 0.00 56 1012.1
20260506123622 46 287 2.0 3.0 0.00 0.00 0.00 57 1011.8
20260506123121 46 5 3.0 5.0 0.00 0.00 0.00 58 1011.7
20260506122617 45 323 4.0 6.0 0.00 0.00 0.00 60 1012.0
20260506122115 45 34 1.0 2.0 0.00 0.00 0.00 62 1011.9
20260506121612 44 357 0.0 1.0 0.00 0.00 0.00 63 1011.9
20260506121108 44 355 4.0 5.0 0.00 0.00 0.00 65 1011.5
20260506120606 43 271 1.0 1.0 0.00 0.00 0.00 66 1011.7
20260506120103 43 4 2.0 2.0 0.00 0.00 0.00 66 1011.6
20260506115602 43 305 1.0 1.0 0.00 0.00 0.00 67 1011.6
20260506115100 42 330 1.0 2.0 0.00 0.00 0.00 69 1011.1
20260506114557 41 307 1.0 1.0 0.00 0.00 0.00 73 1011.2
20260506114055 41 307 0.0 0.0 0.00 0.00 0.00 75 1011.4
20260506113552 40 297 0.0 1.0 0.00 0.00 0.00 76 1011.0
20260506113049 40 273 0.0 1.0 0.00 0.00 0.00 78 1011.1
20260506112546 40 273 0.0 0.0 0.00 0.00 0.00 76 1011.1
20260506112043 41 272 0.0 0.0 0.00 0.00 0.00 78 1011.1
20260506111541 40 272 0.0 0.0 0.00 0.00 0.00 76 1011.4
20260506111038 39 287 0.0 0.0 0.00 0.00 0.00 80 1011.0
20260506110536 39 298 0.0 0.0 0.00 0.00 0.00 81 1010.6
20260506110033 39 298 0.0 0.0 0.00 0.00 0.00 81 1010.8
20260506105529 39 280 1.0 2.0 0.00 0.00 0.00 82 1010.7
20260506105026 39 270 0.0 0.0 0.00 0.00 0.00 81 1011.0
20260506104524 39 270 0.0 0.0 0.00 0.00 0.00 81 1010.7
20260506104022 39 270 0.0 0.0 0.00 0.00 0.00 80 1010.6
20260506103519 39 270 0.0 0.0 0.00 0.00 0.00 79 1010.5
20260506103015 40 270 0.0 0.0 0.00 0.00 0.00 79 1010.4
20260506102514 40 270 0.0 0.0 0.00 0.00 0.00 77 1010.4
20260506102011 40 270 0.0 0.0 0.00 0.00 0.00 77 1010.2
20260506101507 41 270 0.0 0.0 0.00 0.00 0.00 76 1010.2
20260506101005 41 271 0.0 0.0 0.00 0.00 0.00 75 1010.1
20260506100503 41 270 0.0 0.0 0.00 0.00 0.00 74 1010.2
20260506100001 42 270 0.0 0.0 0.00 0.00 0.00 74 1010.1
20260506095459 42 270 0.0 0.0 0.00 0.00 0.00 72 1010.2
20260506094955 42 270 0.0 0.0 0.00 0.00 0.00 72 1010.3
20260506094453 43 306 0.0 0.0 0.00 0.00 0.00 70 1010.3
20260506093950 43 327 0.0 0.0 0.00 0.00 0.00 69 1010.3
20260506093449 44 293 0.0 0.0 0.00 0.00 0.00 71 1010.3
20260506092946 44 293 0.0 1.0 0.00 0.00 0.00 67 1010.3
20260506092444 44 296 0.0 1.0 0.00 0.00 0.00 67 1010.1
20260506091940 44 334 1.0 1.0 0.00 0.00 0.00 67 1010.0
20260506091439 44 335 0.0 0.0 0.00 0.00 0.00 67 1009.6
20260506090936 44 32 0.0 0.0 0.00 0.00 0.00 68 1009.6
20260506090433 44 310 1.0 1.0 0.00 0.00 0.00 66 1009.5
20260506085929 44 55 1.0 1.0 0.00 0.00 0.00 66 1009.6
20260506085426 44 90 0.0 0.0 0.00 0.00 0.00 66 1009.5
20260506084922 44 206 0.0 0.0 0.00 0.00 0.00 66 1009.7
20260506084420 44 75 0.0 1.0 0.00 0.00 0.00 65 1009.6
20260506083915 44 311 0.0 0.0 0.00 0.00 0.00 65 1009.8
20260506083413 45 324 0.0 1.0 0.00 0.00 0.00 65 1009.8
20260506082911 45 0 0.0 1.0 0.00 0.00 0.00 66 1009.7
20260506082408 45 50 1.0 2.0 0.00 0.00 0.00 64 1009.9
20260506081903 45 273 0.0 0.0 0.00 0.00 0.00 65 1009.4
20260506081402 45 316 0.0 0.0 0.00 0.00 0.00 64 1009.5
20260506080858 45 207 0.0 1.0 0.00 0.00 0.00 66 1009.6
20260506080355 45 29 3.0 3.0 0.00 0.00 0.00 64 1009.6
20260506073339 46 69 1.0 2.0 0.00 0.00 0.00 63 1009.7
20260506072836 46 239 1.0 1.0 0.00 0.00 0.00 63 1009.8
20260506072334 46 340 3.0 3.0 0.00 0.00 0.00 63 1010.0
20260506071831 46 212 1.0 1.0 0.00 0.00 0.00 64 1009.6
20260506071329 46 8 2.0 2.0 0.00 0.00 0.00 63 1009.3
20260506070826 46 294 0.0 1.0 0.00 0.00 0.00 64 1009.7
20260506070323 46 130 0.0 0.0 0.00 0.00 0.00 63 1009.4
20260506062300 46 325 1.0 1.0 0.00 0.00 0.00 65 1009.7
20260506061755 46 294 0.0 0.0 0.00 0.00 0.00 65 1009.7
20260506061253 46 294 0.0 1.0 0.00 0.00 0.00 66 1009.9
20260506060751 46 275 2.0 2.0 0.00 0.00 0.00 65 1009.8
20260506060249 46 340 1.0 1.0 0.00 0.00 0.00 67 1009.7
20260506051220 46 271 1.0 1.0 0.00 0.00 0.00 66 1009.9
20260506050718 46 324 2.0 2.0 0.00 0.00 0.00 64 1009.7
20260506050215 46 288 1.0 1.0 0.00 0.00 0.00 66 1009.7
20260506044706 46 293 0.0 0.0 0.00 0.00 0.00 70 1009.4
20260506044203 46 289 0.0 0.0 0.00 0.00 0.00 68 1009.4
20260506043700 47 289 0.0 0.0 0.00 0.00 0.00 68 1009.5
20260506043158 47 313 0.0 0.0 0.00 0.00 0.00 67 1009.6
20260506042657 47 344 1.0 1.0 0.00 0.00 0.00 64 1009.8
20260506042155 47 279 1.0 1.0 0.00 0.00 0.00 64 1009.7
20260506041653 46 331 1.0 2.0 0.00 0.00 0.00 64 1009.8
20260506041149 46 320 1.0 2.0 0.00 0.00 0.00 66 1009.8